Regional Weather Roundup
Issued by NWS

Home | Current Version | Previous Version | Text Only | Print | Product List | Glossary Off
Versions: 1 2 3 4 5 6 7 8 9 10 11 12 13 14 15 16 17 18 19 20 21 22 23 24 25 26 27 28 29 30 31 32 33 34 35 36 37 38 39 40 41 42 43 44 45 46 47 48 49 50

000
ASUS43 KIND 242109
RWRIN

WEATHER ROUNDUP FOR INDIANA
NATIONAL WEATHER SERVICE INDIANAPOLIS IN
500 PM EDT SUN MAY 24 2015

NOTE: "FAIR" INDICATES FEW OR NO CLOUDS BELOW 12,000 FEET WITH NO
SIGNIFICANT WEATHER AND/OR OBSTRUCTIONS TO VISIBILITY.

* - STATION DOES NOT REPORT WEATHER SUCH AS PRECIPITATION OR FOG.

+ - STATION NOT QUALITY CONTROLLED BY THE NATIONAL WEATHER SERVICE.
    USE DATA WITH CAUTION...ESPECIALLY DEWPOINT AND RELATIVE
    HUMIDITY OBSERVATIONS.

INZ001>003-010>013-019-020-242200-
NORTHWEST INDIANA

CITY           SKY/WX    TMP DP  RH WIND       PRES   REMARKS
GARY /AIRPORT/ CLOUDY    82  57  42 SE14      29.99F
KNOX *+        PTSUNNY   86  54  32 S18G24    30.02F
LA PORTE +     PTSUNNY   83  56  38 S14G20    30.03F
MICHIGAN CITY+ CLOUDY    81  54  39 SE9G16    30.02F
MONTICELLO +   MOSUNNY   80  59  47 S13G21    30.04F
RENSSELAER +   MOSUNNY   84  59  42 S21G30    30.02F
VALPARAISO     CLOUDY    82  56  40 S15G28    30.01F

$$

LMZ046-743>745-242200-
SOUTHERN LAKE MICHIGAN

STATION/POSITION TIME  TEMP    WIND        PRES    WAVE
                       AIR SEA DIR/SP/G            HT
                 (UTC) (F)     (DEG/KT/KT) (MB)    (FT)
BURNS HARBOR     2100   82     170/ 12/ 17 1016.3F
MICHIGAN CITY    2100   79     110/  9/ 13   N/A
5NW MICH CITY    2100   70 54  160/ 10/ 16   N/A     1

$$

INZ004-005-014>016-021>024-242200-
NORTH CENTRAL INDIANA

CITY           SKY/WX    TMP DP  RH WIND       PRES   REMARKS
ELKHART        CLOUDY    81  55  41 SE9       30.07F
GOSHEN         CLOUDY    80  57  45 SE12      30.08F
LOGANSPORT +   CLOUDY    82  45  26 S18G24    30.07F
PERU/GRISSOM   MOSUNNY   82  55  39 S15G26    30.07F
ROCHESTER +    PTSUNNY   82  54  36 S12G22    30.07F
SOUTH BEND     CLOUDY    83  56  39 SE15G24   30.05F
WARSAW +       PTSUNNY   81  55  41 S6        30.08F

$$

INZ006>009-017-018-025>027-242200-
NORTHEAST INDIANA

CITY           SKY/WX    TMP DP  RH WIND       PRES   REMARKS
ANGOLA *+      PTSUNNY   79  57  47 S9        30.12F
AUBURN +       MOSUNNY   81  52  36 S8        30.12F
FORT WAYNE     MOSUNNY   82  54  37 S14       30.11F
HUNTINGTON +   MOSUNNY   81  53  37 S9G20     30.09F

$$

INZ028-029-035-036-043>045-051>053-242200-
WEST CENTRAL INDIANA

CITY           SKY/WX    TMP DP  RH WIND       PRES   REMARKS
CRAWFORDSVL +  PTSUNNY   80  49  34 S17G25    30.07F
GREENCASTLE +  CLOUDY    79  54  41 S9G17     30.09F
LAFAYETTE      PTSUNNY   81  58  45 S14G24    30.04F
TERRE HAUTE    CLOUDY    82  61  48 S18       30.06F

$$

INZ030>032-037>040-046>048-054>057-064-065-242200-
CENTRAL INDIANA

CITY           SKY/WX    TMP DP  RH WIND       PRES   REMARKS
CP ATTERBURY + MOSUNNY   81  54  39 S13G24    30.12F
COLUMBUS       MOSUNNY   82  45  26 S16G24    30.12F
FISHERS *+     MOSUNNY   81  59  47 S16G22    30.09F
FRANKFORT +    SUNNY     83  56  38 SE10G17   30.09F
GREENWOOD *+   MOSUNNY   86  46  25 S17       30.12F
INDIANAPOLIS   PTSUNNY   82  53  36 S20G26    30.08F
-EAGLE CREEK   MOSUNNY   81  54  39 S10G22    30.09F
KOKOMO *+      MOSUNNY   82  55  39 S23G30    30.08F
MARION +       MOSUNNY   83  49  31 S18G26    30.11F
MT COMFORT *+  MOSUNNY   84  28  13 S16G23    30.11F
SHELBYVILLE    MOSUNNY   86  53  32 S14G25    30.11F
ZIONSVILLE +   MOSUNNY   83  48  28 S16G23    30.10F

$$

INZ033-034-041-042-049-050-058-059-242200-
EAST CENTRAL INDIANA

CITY           SKY/WX    TMP DP  RH WIND       PRES   REMARKS
MUNCIE         MOSUNNY   84  51  31 S13G21    30.11F

$$

INZ060-061-067>069-081>083-085>088-242200-
SOUTHWEST INDIANA

CITY           SKY/WX    TMP DP  RH WIND       PRES   REMARKS
EVANSVILLE     MOSUNNY   83  63  50 S15       30.06F
HUNTINGBURG *+ PTSUNNY   82  63  51 SE16G23   30.09F
WASHINGTON +   MOSUNNY   83  55  37 SE16G24   30.07F

$$

INZ062-063-066-070>080-084-089>092-242200-
SOUTH CENTRAL AND SOUTHEAST INDIANA

CITY           SKY/WX    TMP DP  RH WIND       PRES   REMARKS
BLOOMINGTON    MOSUNNY   80  59  48 S14G22    30.10F
MADISON *+     MOSUNNY   86  45  23 S14G22    30.17F
NORTH VERNON + MOSUNNY   84  52  32 S15G21    30.15F
SEYMOUR +      MOSUNNY   86  57  37 S13       30.12F

$$




USA.gov is the U.S. government's official web portal to all federal, state and local government web resources and services.